Regional Weather Roundup
Issued by NWS

Home | Current Version | Previous Version | Graphics & Text | Print | Product List | Glossary On
Versions: 1 2 3 4 5 6 7 8 9 10 11 12 13 14 15 16 17 18 19 20 21 22 23 24 25 26 27 28 29 30 31 32 33 34 35 36 37 38 39 40 41 42 43 44 45 46 47 48 49 50
000
ASUS43 KFSD 021310
RWRSD

WEATHER ROUNDUP FOR SOUTH DAKOTA
NATIONAL WEATHER SERVICE SIOUX FALLS SD
700 AM CST FRI DEC 02 2016

NOTE: "FAIR" INDICATES FEW OR NO CLOUDS BELOW 12,000 FEET WITH NO
SIGNIFICANT WEATHER AND/OR OBSTRUCTIONS TO VISIBILITY.


SDZ001>005-009-010-012>017-021400-
NORTHWEST AND NORTH CENTRAL SOUTH DAKOTA

CITY           SKY/WX    TMP DP  RH WIND       PRES   REMARKS
BUFFALO          N/A     23  21  92 W5        30.05R WCI  17
FAITH            N/A     25  25 100 SW5       30.15R WCI  19
MOBRIDGE       CLOUDY    27  23  85 CALM      30.17R
$$

SDZ012>016-024>037-041>051-057-063-072>074-021400-
SOUTHWEST AND SOUTH CENTRAL SOUTH DAKOTA

CITY           SKY/WX    TMP DP  RH WIND       PRES   REMARKS
RAPID CTY ARPT CLOUDY    23  19  85 CALM      30.13R
PIERRE         CLOUDY    28  26  92 NW3       30.19R
CUSTER         CLOUDY    22  16  78 NW5       30.07R WCI  16
ELLSWORTH AFB  CLOUDY    25  22  88 NW5       30.12R WCI  19
PHILIP         CLOUDY    18  17  96 CALM      30.18R
PINE RIDGE     CLEAR     12  11  95 CALM      30.14R
SPEARFISH      MOCLDY    28  21  74 NW5       30.11R WCI  23
WINNER         CLOUDY    29  26  89 NW3       30.19R
$$

SDZ004>011-016>023-039-040-021400-
NORTHEAST SOUTH DAKOTA

CITY           SKY/WX    TMP DP  RH WIND       PRES   REMARKS
ABERDEEN       CLOUDY    28  21  75 N5        30.21R WCI  23
WATERTOWN      CLOUDY    26  22  84 NW8       30.16R WCI  18
BROOKINGS      CLOUDY    27  25  93 CALM      30.18R
SISSETON         N/A     28  20  71 N12       30.20R WCI  18
$$

SDZ017-020-022-023-036>040-048>070-021400-
SOUTHEAST SOUTH DAKOTA

CITY           SKY/WX    TMP DP  RH WIND       PRES   REMARKS
SIOUX FALLS    CLOUDY    30  29  96 N3        30.18R
HURON          CLOUDY    29  28  96 NW6       30.21R WCI  23
CHAMBERLAIN    CLOUDY    30  30  99 W5        30.19R WCI  25
MITCHELL       CLOUDY    30  29  96 N7        30.21R WCI  23
YANKTON        CLOUDY    32  28  86 W6        30.20R WCI  26
$$

ABBREVIATIONS USED IN REMARKS
   TC - TEMPERATURE IN CELSIUS
  WCI - WIND CHILL INDEX
   HX - HEAT INDEX
  VSB - VISIBILITY





USA.gov is the U.S. government's official web portal to all federal, state and local government web resources and services.